星链-32435 (STARLINK-32435)

导读 | 豆包AI

STARLINK-32435是美国SpaceX公司于2024年9月25日发射的星链(Starlink)系列卫星,属于第二代星链星座部署的组成部分。星链项目旨在构建覆盖全球的低轨卫星互联网星座,为全球提供高速宽带通信服务,已扩展至航空、航运、应急通信等领域。该卫星配备先进通信技术,助力星链实现全球无缝覆盖,推动天地一体化网络建设,目前已稳定在轨运行。

基本信息
目录编号:
61259
目录名称:
STARLINK-32435
国际标识:
2024-175S
轨道中心:
EARTH
卫星名称:
星链-32435
卫星全名:
星链-32435 (STARLINK-32435)
卫星状态:
在轨 (已飞行583 天)
发射日期:
2024-09-25 UTC
国别 :
美国 (US)
星等 :
--
轨道信息
数据来源 国际轨道数据
星历时间: 2026-04-30T21:31:49+0800
13小时前
查看轨道信息
半长轴: 6853.426km
偏心率: 0.000064
轨道倾角: 53.161°
近地点辐角 92.969°
升交点赤经 313.243°
平近点角 267.139°
近地点: 474.85km
远地点: 475.728km
周期: 94.107分钟
每日圈数: 15.301754
详细信息
固有亮度:
5
最大亮度:
2.5
卫星平台:
Starlink V1.0
覆盖范围:
全球
运营商:
太空探索技术公司
运营商所在国:
美国
制造商(研发单位):
太空探索技术公司
制造商所在国:
美国
使用方式:
暂无
卫星简介
Starlink 计划是 SpaceX 推出的全球卫星互联网项目,通过发射低轨道卫星,为全球尤其是偏远地区提供高速、低延迟的互联网服务。自 2019 年起,Starlink 已部署数千颗卫星,旨在缩小全球数字鸿沟,推动互联网普及。该项目还为军事、航空等行业提供通信支持,带来广泛经济效益。
2D轨道图
3D轨道图
轨道高度分析图
轨道倾角分析图
轨道综合分析图
查看轨道综合分析图